Location: London
(42.9830°N, 81.2500°W)
Time: 01:29:00
(UTC-04:00)

Amateur Radio Satellites - All Passes

Search period start: 29 August 2016 00:59
Search period end: 30 August 2016 00:59
Location: London, 42.9830°N, 81.2500°W

Satellite Date Start Highest point End Downlink Frequencies (MHz)
Time Altitude Azimuth
TIGRISAT 29 Aug 01:02:55 01:05:53 19° 295° (WNW) 01:08:49 435.000
NANOSAT C BR1 29 Aug 01:03:02 01:07:16 72° 102° (ESE) 01:11:26 145.865
ESTCUBE 1 29 Aug 01:05:05 01:08:27 21° 267° (W) 01:11:51 437.505/2401.250
AISAT 29 Aug 01:07:07 01:11:08 32° 263° (W) 01:15:11 437.250
UKube-1 29 Aug 01:08:35 01:12:51 59° 259° (WSW) 01:17:09 .
50 SAT 29 Aug 01:37:35 01:38:58 12° 269° (W) 01:40:20 437.505
BUGSAT 1 29 Aug 01:38:28 01:42:36 70° 102° (ESE) 01:46:39 437.445
QB50P1 29 Aug 01:48:13 01:52:02 34° 290° (WNW) 01:55:50 145.935-145.965
GONETS M04 29 Aug 01:54:30 02:00:30 21° 282° (WNW) 02:06:31
ITUPSAT 1 29 Aug 01:57:08 02:00:41 21° 64° (ENE) 02:04:13 437.325
VELOX 1 29 Aug 01:57:29 01:58:49 11° 271° (W) 02:00:08 145.980
POPSAT HIP 1 29 Aug 01:58:34 02:02:09 27° 292° (WNW) 02:05:42 437.405
JAS-2 29 Aug 02:01:46 02:08:36 77° 286° (WNW) 02:16:10 435.910
Cosmos 2499 29 Aug 02:05:36 02:09:37 16° 281° (W) 02:13:39 435.465 / 435.565
SPROUT 29 Aug 02:05:43 02:08:27 16° 268° (W) 02:11:12 437.525
SO-50 29 Aug 02:06:07 02:09:23 18° 323° (NW) 02:12:36 436.795
DX 1 29 Aug 02:10:01 02:11:28 11° 270° (W) 02:12:55 434.975-435.025
Gurwin Techsat 1B 29 Aug 02:16:22 02:19:27 15° 90° (E) 02:22:28 435.225
TISAT 1 29 Aug 02:18:04 02:22:11 48° 260° (W) 02:26:19 437.305
DUCHIFAT 1 29 Aug 02:25:22 02:28:04 17° 296° (WNW) 02:30:45 145.980
SWISSCUBE 29 Aug 02:28:15 02:32:47 46° 70° (ENE) 02:37:19 437.505
QB50P2 29 Aug 02:30:40 02:32:37 13° 298° (WNW) 02:34:34 145.880/145.840
Oscar 19 29 Aug 02:33:06 02:38:08 46° 99° (E) 02:43:06 437.125/150
POLYITAN 1 29 Aug 02:33:14 02:35:07 13° 298° (WNW) 02:37:00 437.675
NANOSAT C BR1 29 Aug 02:40:59 02:42:23 11° 299° (WNW) 02:43:47 145.865
BEESAT 29 Aug 02:45:03 02:49:43 61° 73° (ENE) 02:54:25 436.000
PHONESAT 2.4 29 Aug 02:47:43 02:50:28 32° 165° (SSE) 02:53:13 2401.200-2431.200
MOZHAYETS 4 29 Aug 02:50:31 02:51:18 10° 59° (ENE) 02:52:05
RS-15 29 Aug 03:08:52 03:20:27 68° 310° (NW) 03:32:41 29.354- 29.394
BUGSAT 1 29 Aug 03:16:04 03:17:22 11° 299° (WNW) 03:18:41 437.445
ITUPSAT 1 29 Aug 03:33:38 03:38:12 45° 261° (W) 03:42:47 437.325
Cosmos 2491 29 Aug 03:38:58 03:41:13 11° 51° (NE) 03:43:28 435.465 / 435.565
JAS-2 29 Aug 03:48:50 03:52:45 16° 303° (WNW) 03:56:53 435.910
ITAMSAT 1 29 Aug 03:50:29 03:55:11 33° 97° (E) 03:59:50 435.822/435.867
Gurwin Techsat 1B 29 Aug 03:54:36 03:59:54 70° 287° (WNW) 04:05:11 435.225
AO-7 29 Aug 03:56:12 04:02:33 24° 92° (E) 04:08:51 29.400- 29.500
KKS-1 29 Aug 04:07:09 04:11:27 48° 71° (ENE) 04:15:48 437.445
SWISSCUBE 29 Aug 04:07:21 04:10:47 20° 267° (W) 04:14:14 437.505
Oscar 19 29 Aug 04:13:02 04:17:09 24° 296° (WNW) 04:21:14 437.125/150
CUBESAT XI-V 29 Aug 04:14:33 04:15:09 10° 58° (ENE) 04:15:45 437.345
MOZHAYETS 4 29 Aug 04:23:10 04:27:43 88° 82° (E) 04:32:19
PHONESAT 2.4 29 Aug 04:23:39 04:26:35 52° 181° (S) 04:29:31 2401.200-2431.200
BEESAT 29 Aug 04:25:13 04:27:54 15° 269° (W) 04:30:35 436.000
AO-85 29 Aug 04:25:16 04:27:06 12° 107° (ESE) 04:28:54 145.980
STARS 29 Aug 04:39:02 04:43:20 52° 72° (ENE) 04:47:40 437.465
YUBILEINY 29 Aug 04:57:31 04:59:34 11° 71° (ENE) 05:01:37 435.215
HORYU 2 29 Aug 05:21:18 05:23:11 12° 90° (E) 05:25:05 437.375
RS-15 29 Aug 05:25:39 05:35:47 30° 340° (NNW) 05:46:15 29.354- 29.394
ITAMSAT 1 29 Aug 05:30:02 05:34:34 32° 294° (WNW) 05:39:06 435.822/435.867
Cosmos 2491 29 Aug 05:31:49 05:40:29 55° 76° (ENE) 05:49:05 435.465 / 435.565
Gurwin Techsat 1B 29 Aug 05:38:00 05:38:53 10° 305° (NW) 05:39:45 435.225
KKS-1 29 Aug 05:45:22 05:48:17 17° 268° (W) 05:51:13 437.445
CUBESAT XI-V 29 Aug 05:47:08 05:51:45 85° 77° (ENE) 05:56:25 437.345
AO-7 29 Aug 05:47:47 05:56:06 77° 291° (WNW) 06:04:20 29.400- 29.500
PHONESAT 2.4 29 Aug 06:00:00 06:02:41 29° 197° (SSW) 06:05:20 2401.200-2431.200
AO-85 29 Aug 06:01:36 06:06:55 84° 123° (ESE) 06:11:56 145.980
Cosmos 2504 29 Aug 06:10:00 06:11:15 10° 74° (ENE) 06:12:29 435.465 / 435.565
STRAND 1 29 Aug 06:10:13 06:11:30 11° 56° (ENE) 06:12:48 437.568
BRITE-PL 29 Aug 06:16:28 06:21:15 27° 92° (E) 06:25:55 437.365/2234.400
STARS 29 Aug 06:17:21 06:20:00 15° 268° (W) 06:22:39 437.465
Cubesat XI-IV 29 Aug 06:31:26 06:34:17 14° 90° (E) 06:37:07 437.490
NOAA 15 29 Aug 06:38:04 06:42:08 22° 93° (E) 06:46:10 137.62
CUTE-I 29 Aug 06:42:08 06:45:48 19° 92° (E) 06:49:27 437.470
YUBILEINY 29 Aug 06:45:46 06:54:25 63° 92° (E) 07:03:05 435.215
HORYU 2 29 Aug 06:55:47 07:00:10 63° 287° (WNW) 07:04:31 437.375
SO-50 29 Aug 07:14:43 07:17:47 17° 37° (NE) 07:20:47 436.795
DOVE 4 29 Aug 07:22:02 07:25:46 21° 91° (E) 07:29:21 437.250
GOMX 1 29 Aug 07:22:26 07:27:40 48° 97° (E) 07:32:36 467.674
Cosmos 2491 29 Aug 07:29:16 07:36:54 35° 276° (W) 07:44:33 435.465 / 435.565
NOAA 18 29 Aug 07:34:26 07:39:43 47° 100° (E) 07:44:57 137.9125
AO-7 29 Aug 07:42:09 07:47:34 20° 312° (NW) 07:52:59 29.400- 29.500
RS-15 29 Aug 07:43:28 07:53:34 28° 15° (NNE) 08:03:44 29.354- 29.394
AO-85 29 Aug 07:44:16 07:47:57 19° 320° (NW) 07:51:28 145.980
STRAND 1 29 Aug 07:44:43 07:49:49 78° 74° (ENE) 07:54:56 437.568
BRITE-PL 29 Aug 07:54:26 07:59:51 46° 290° (WNW) 08:05:09 437.365/2234.400
Cosmos 2504 29 Aug 07:54:51 08:03:06 63° 93° (E) 08:10:49 435.465 / 435.565
PRISM 29 Aug 08:01:13 08:02:48 12° 61° (ENE) 08:04:25 437.425
LilacSat-2 29 Aug 08:02:51 08:06:34 58° 286° (WNW) 08:10:16 437.200
HO-68 29 Aug 08:08:00 08:12:56 19° 90° (E) 08:17:49 435.675
Cubesat XI-IV 29 Aug 08:09:35 08:14:54 74° 287° (WNW) 08:20:12 437.490
CANX-2 29 Aug 08:09:36 08:11:33 13° 90° (E) 08:13:31 2200.000
CUTE 1.7 + AOD 2 29 Aug 08:15:21 08:17:20 13° 90° (E) 08:19:17 437.475
NOAA 15 29 Aug 08:17:01 08:22:10 50° 290° (WNW) 08:27:17 137.62
CUTE-I 29 Aug 08:21:00 08:26:14 58° 289° (WNW) 08:31:25 437.470
YUBILEINY 29 Aug 08:44:13 08:51:47 31° 293° (WNW) 08:59:23 435.215
BEESAT 3 29 Aug 08:54:09 08:54:59 11° 108° (ESE) 08:55:50 437.485
SO-50 29 Aug 08:54:15 08:58:53 83° 238° (WSW) 09:03:22 436.795
DOVE 4 29 Aug 08:58:54 09:03:44 46° 289° (WNW) 09:08:16 437.250
GOMX 1 29 Aug 09:01:05 09:05:23 24° 296° (WNW) 09:09:30 467.674
ISS 29 Aug 09:10:47 09:14:02 67° 144° (SE) 09:17:18 145.825
NOAA 18 29 Aug 09:15:40 09:20:05 25° 297° (WNW) 09:24:27 137.9125
SEEDS 29 Aug 09:18:36 09:22:40 45° 99° (E) 09:26:43 437.485
UNISAT 6 29 Aug 09:21:04 09:22:00 11° 60° (ENE) 09:22:55 437.425
STRAND 1 29 Aug 09:27:19 09:29:34 13° 271° (W) 09:31:49 437.568
CINEMA 3 29 Aug 09:27:24 09:31:56 78° 284° (WNW) 09:36:14 145.822/145.860
UWE-3 29 Aug 09:28:47 09:31:49 19° 93° (E) 09:34:49 435.000/436.395/437.385
PRISM 29 Aug 09:33:30 09:37:33 66° 258° (WSW) 09:41:41 437.425
CUBEBUG 2 29 Aug 09:34:10 09:38:01 33° 97° (E) 09:41:46 437.445
ZACube-1 29 Aug 09:39:48 09:42:25 16° 92° (E) 09:45:01 437.345
CANX-2 29 Aug 09:43:35 09:47:45 57° 286° (WNW) 09:51:55 2200.000
CUSAT 1 29 Aug 09:44:35 09:50:08 28° 71° (ENE) 09:56:30 437.405
AAUSAT CUBESAT 2 29 Aug 09:44:51 09:48:54 48° 99° (E) 09:52:56 437.432
CUTE 1.7 + AOD 2 29 Aug 09:49:21 09:53:31 57° 287° (WNW) 09:57:41 437.475
Cosmos 2504 29 Aug 09:50:02 09:56:57 28° 291° (WNW) 10:03:31 435.465 / 435.565
Cubesat XI-IV 29 Aug 09:52:38 09:54:02 11° 305° (NW) 09:55:28 437.490
HO-68 29 Aug 09:54:12 10:01:24 80° 289° (WNW) 10:08:32 435.675
COMPASS 1 29 Aug 09:54:32 09:58:44 80° 103° (ESE) 10:02:56 437.405
ANTELSAT 29 Aug 09:54:58 09:58:32 23° 66° (ENE) 10:02:04 437.575/2403.000
RS-15 29 Aug 09:57:21 10:09:33 58° 46° (NE) 10:21:33 29.354- 29.394
AIST 1 29 Aug 10:07:46 10:12:06 75° 278° (W) 10:16:31
BEESAT 2 29 Aug 10:13:47 10:17:29 41° 117° (ESE) 10:21:14 435.950
TIGRISAT 29 Aug 10:24:31 10:28:50 42° 71° (ENE) 10:33:05 435.000
BEESAT 3 29 Aug 10:28:10 10:32:04 70° 306° (NW) 10:36:01 437.485
Oscar 11 29 Aug 10:42:20 10:46:40 83° 101° (E) 10:50:59 145.826/435.025
ISS 29 Aug 10:47:54 10:50:44 26° 342° (NNW) 10:53:34 145.825
FUNcube-1 29 Aug 10:52:18 10:56:28 82° 283° (WNW) 11:00:35 145.935
UNISAT 6 29 Aug 10:53:25 10:58:01 90° 184° (S) 11:02:33 437.425
PCSat 29 Aug 10:53:55 10:56:16 13° 102° (ESE) 10:58:38 145.827
SEEDS 29 Aug 10:55:17 10:58:01 17° 295° (WNW) 11:00:45 437.485
DANDE 29 Aug 10:57:17 11:02:26 38° 76° (ENE) 11:08:56 436.750
Cosmos 2499 29 Aug 11:01:21 11:03:18 11° 75° (ENE) 11:05:13 435.465 / 435.565
UWE-3 29 Aug 11:04:35 11:08:24 35° 290° (WNW) 11:12:11 435.000/436.395/437.385
GONETS M04 29 Aug 11:04:56 11:10:39 20° 77° (ENE) 11:16:25
QB50P1 29 Aug 11:06:32 11:09:34 19° 65° (ENE) 11:12:35 145.935-145.965
DELFI C3 29 Aug 11:08:53 11:12:53 69° 101° (E) 11:16:53 145.870
CUBEBUG 2 29 Aug 11:11:13 11:14:27 22° 294° (WNW) 11:17:37 437.445
ZACube-1 29 Aug 11:15:00 11:18:56 42° 288° (WNW) 11:22:50 437.345
POPSAT HIP 1 29 Aug 11:16:17 11:19:41 23° 67° (ENE) 11:23:05 437.405
AAUSAT CUBESAT 2 29 Aug 11:21:27 11:24:00 16° 296° (WNW) 11:26:32 437.432
CUSAT 1 29 Aug 11:25:54 11:32:22 61° 264° (W) 11:40:00 437.405
ANTELSAT 29 Aug 11:30:47 11:35:03 37° 263° (W) 11:39:15 437.575/2403.000
COMPASS 1 29 Aug 11:33:03 11:33:40 10° 299° (WNW) 11:34:16 437.405
DUCHIFAT 1 29 Aug 11:41:11 11:45:07 37° 70° (ENE) 11:49:03 145.980
HO-68 29 Aug 11:43:42 11:48:01 17° 308° (NW) 11:52:20 435.675
M-CUBED/EXP-1 PRIME 29 Aug 11:44:56 11:47:06 14° 95° (E) 11:49:10 437.505
HUMSAT D 29 Aug 11:45:22 11:49:29 85° 103° (ESE) 11:53:34 437.325/437.525
QB50P2 29 Aug 11:46:15 11:50:24 52° 73° (ENE) 11:54:34 145.880/145.840
POLYITAN 1 29 Aug 11:48:45 11:52:55 52° 73° (ENE) 11:57:05 437.675
BEESAT 2 29 Aug 11:52:21 11:55:28 22° 316° (NW) 11:58:38 435.950
NANOSAT C BR1 29 Aug 11:55:37 11:59:47 58° 74° (ENE) 12:03:59 145.865
TIGRISAT 29 Aug 12:02:20 12:05:40 20° 267° (W) 12:08:59 435.000
CUBEBUG 1 29 Aug 12:05:19 12:07:50 15° 91° (E) 12:10:20 437.445
VELOX 1 29 Aug 12:08:29 12:10:28 13° 90° (E) 12:12:27 145.980
BEESAT 3 29 Aug 12:09:26 12:10:29 11° 325° (NW) 12:11:31 437.485
RS-15 29 Aug 12:10:21 12:21:56 50° 250° (WSW) 12:33:19 29.354- 29.394
JAS-2 29 Aug 12:16:03 12:21:04 49° 69° (ENE) 12:26:28 435.910
Oscar 19 29 Aug 12:16:23 12:17:26 11° 56° (NE) 12:18:29 437.125/150
DX 1 29 Aug 12:20:20 12:21:27 11° 89° (E) 12:22:35 434.975-435.025
Oscar 11 29 Aug 12:21:15 12:22:08 11° 300° (WNW) 12:23:02 145.826/435.025
ISS 29 Aug 12:25:38 12:27:59 18° 2° (N) 12:30:20 145.825
BUGSAT 1 29 Aug 12:28:30 12:32:39 54° 73° (ENE) 12:36:49 437.445
PCSat 29 Aug 12:33:26 12:38:51 88° 299° (WNW) 12:44:20 145.827
DANDE 29 Aug 12:40:02 12:45:09 36° 266° (W) 12:51:31 436.750
AIST 2 29 Aug 12:40:15 12:44:17 61° 120° (ESE) 12:48:23 435.215
QB50P1 29 Aug 12:41:00 12:45:02 41° 262° (W) 12:49:06 145.935-145.965
DELFI C3 29 Aug 12:46:06 12:47:10 11° 298° (WNW) 12:48:14 145.870
Cosmos 2499 29 Aug 12:47:01 12:55:03 68° 94° (E) 13:02:30 435.465 / 435.565
POPSAT HIP 1 29 Aug 12:51:27 12:55:17 32° 263° (W) 12:59:10 437.405
AO-85 29 Aug 12:53:59 12:56:20 14° 35° (NE) 12:58:35 145.980
ESTCUBE 1 29 Aug 12:55:05 12:59:39 77° 103° (ESE) 13:04:11 437.505/2401.250
UKube-1 29 Aug 12:55:23 12:58:40 21° 94° (E) 13:01:56 .
AISAT 29 Aug 12:55:51 13:00:07 42° 99° (E) 13:04:21 437.250
GONETS M04 29 Aug 12:57:27 13:06:14 87° 280° (W) 13:15:08
50 SAT 29 Aug 13:02:15 13:05:48 47° 100° (E) 13:09:20 437.505
AUBIESAT-1 29 Aug 13:10:34 13:14:36 71° 290° (WNW) 13:18:18 437.475
CUSAT 1 29 Aug 13:12:39 13:13:29 10° 279° (W) 13:14:20 437.405
DUCHIFAT 1 29 Aug 13:17:50 13:20:56 19° 267° (W) 13:24:02 145.980
M-CUBED/EXP-1 PRIME 29 Aug 13:18:00 13:21:59 47° 294° (WNW) 13:25:37 437.505
QB50P2 29 Aug 13:24:09 13:26:31 14° 269° (W) 13:28:52 145.880/145.840
POLYITAN 1 29 Aug 13:26:42 13:29:01 14° 269° (W) 13:31:21 437.675
NANOSAT C BR1 29 Aug 13:33:59 13:35:54 13° 270° (W) 13:37:48 145.865
Gurwin Techsat 1B 29 Aug 13:37:48 13:42:15 28° 65° (ENE) 13:46:43 435.225
CUBEBUG 1 29 Aug 13:40:06 13:44:27 54° 287° (WNW) 13:48:45 437.445
VELOX 1 29 Aug 13:42:55 13:47:21 64° 287° (WNW) 13:51:45 145.980
SPROUT 29 Aug 13:48:44 13:53:02 81° 104° (ESE) 13:57:17 437.525
Oscar 19 29 Aug 13:50:40 13:55:49 74° 74° (ENE) 14:01:01 437.125/150
DX 1 29 Aug 13:53:44 13:58:08 72° 286° (WNW) 14:02:29 434.975-435.025
TISAT 1 29 Aug 14:01:28 14:04:50 23° 95° (E) 14:08:10 437.305
ISS 29 Aug 14:02:08 14:05:10 33° 22° (NNE) 14:08:11 145.825
JAS-2 29 Aug 14:02:42 14:06:35 21° 269° (W) 14:10:41 435.910
BUGSAT 1 29 Aug 14:06:09 14:08:21 14° 269° (W) 14:10:33 437.445
PCSat 29 Aug 14:19:27 14:23:03 18° 320° (NW) 14:26:40 145.827
AIST 2 29 Aug 14:20:18 14:23:09 18° 319° (NW) 14:26:01 435.215
O/OREOS (USA 219) 29 Aug 14:27:18 14:31:47 82° 112° (ESE) 14:36:20 437.305
SWISSCUBE 29 Aug 14:30:18 14:31:11 10° 88° (E) 14:32:03 437.505
UKube-1 29 Aug 14:30:49 14:34:50 37° 290° (WNW) 14:38:48 .
AISAT 29 Aug 14:33:03 14:36:17 20° 296° (WNW) 14:39:31 437.250
AO-85 29 Aug 14:33:12 14:37:31 88° 48° (NE) 14:41:30 145.980
ESTCUBE 1 29 Aug 14:33:55 14:35:50 13° 300° (WNW) 14:37:43 437.505/2401.250
50 SAT 29 Aug 14:37:23 14:38:58 12° 296° (WNW) 14:40:33 437.505
Cosmos 2499 29 Aug 14:42:25 14:48:42 25° 292° (WNW) 14:54:43 435.465 / 435.565
BEESAT 29 Aug 14:45:43 14:48:16 14° 90° (E) 14:50:49 436.000
AO-7 29 Aug 14:55:56 15:03:23 38° 59° (ENE) 15:10:51 29.400- 29.500
GONETS M04 29 Aug 14:58:26 15:04:26 20° 300° (WNW) 15:10:31
ITAMSAT 1 29 Aug 15:09:11 15:14:14 57° 72° (ENE) 15:19:19 435.822/435.867
Gurwin Techsat 1B 29 Aug 15:17:02 15:22:01 40° 262° (W) 15:27:02 435.225
SPROUT 29 Aug 15:27:21 15:28:19 11° 300° (WNW) 15:29:17 437.525
ITUPSAT 1 29 Aug 15:32:58 15:37:29 41° 99° (E) 15:42:00 437.325
Oscar 19 29 Aug 15:33:02 15:35:41 14° 271° (W) 15:38:21 437.125/150
TISAT 1 29 Aug 15:36:47 15:40:31 31° 291° (WNW) 15:44:11 437.305
ISS 29 Aug 15:38:34 15:41:41 41° 220° (SW) 15:44:48 145.825
SWISSCUBE 29 Aug 16:04:47 16:09:35 84° 285° (WNW) 16:14:21 437.505
O/OREOS (USA 219) 29 Aug 16:09:44 16:11:50 13° 311° (NW) 16:13:57 437.305
MOZHAYETS 4 29 Aug 16:18:02 16:21:20 19° 92° (E) 16:24:38
HORYU 2 29 Aug 16:20:13 16:22:40 15° 62° (ENE) 16:25:08 437.375
BEESAT 29 Aug 16:21:45 16:26:28 64° 287° (WNW) 16:31:11 436.000
Cosmos 2491 29 Aug 16:46:26 16:47:28 10° 70° (ENE) 16:48:30 435.465 / 435.565
AO-7 29 Aug 16:47:45 16:55:53 54° 258° (WSW) 17:04:02 29.400- 29.500
ITAMSAT 1 29 Aug 16:50:32 16:54:04 18° 268° (W) 16:57:37 435.822/435.867
YUBILEINY 29 Aug 16:55:11 17:02:51 32° 68° (ENE) 17:10:24 435.215
BEESAT 3 29 Aug 17:08:19 17:10:10 13° 38° (NE) 17:12:00 437.485
ITUPSAT 1 29 Aug 17:11:21 17:15:04 23° 295° (WNW) 17:18:48 437.325
NOAA 18 29 Aug 17:24:04 17:27:12 16° 57° (ENE) 17:30:20 137.9125
BRITE-PL 29 Aug 17:27:59 17:32:17 30° 66° (ENE) 17:36:53 437.365/2234.400
KKS-1 29 Aug 17:33:22 17:37:52 87° 100° (E) 17:42:18 437.445
CUBESAT XI-V 29 Aug 17:43:29 17:46:59 20° 92° (E) 17:50:27 437.345
SWISSCUBE 29 Aug 17:45:30 17:46:35 11° 302° (WNW) 17:47:40 437.505
Cosmos 2504 29 Aug 17:47:25 17:52:40 21° 64° (ENE) 17:57:50 435.465 / 435.565
Cubesat XI-IV 29 Aug 17:53:40 17:58:07 28° 65° (ENE) 18:02:34 437.490
HORYU 2 29 Aug 17:54:19 17:58:44 62° 259° (WSW) 18:03:09 437.375
MOZHAYETS 4 29 Aug 17:54:22 17:58:42 43° 289° (WNW) 18:03:02
NOAA 15 29 Aug 17:58:45 18:03:34 38° 67° (ENE) 18:08:25 137.62
STARS 29 Aug 18:03:33 18:07:59 90° 81° (E) 18:12:21 437.465
CUTE-I 29 Aug 18:04:28 18:09:13 34° 67° (ENE) 18:13:59 437.470
DOVE 4 29 Aug 18:27:29 18:31:45 26° 65° (ENE) 18:36:03 437.250
GOMX 1 29 Aug 18:30:32 18:35:32 54° 72° (ENE) 18:40:50 467.674
BEESAT 2 29 Aug 18:30:47 18:34:30 34° 49° (NE) 18:38:10 435.950
Cosmos 2491 29 Aug 18:33:48 18:42:17 61° 91° (E) 18:50:52 435.465 / 435.565
HO-68 29 Aug 18:38:57 18:43:30 18° 53° (NE) 18:48:05 435.675
BEESAT 3 29 Aug 18:44:27 18:48:27 88° 59° (ENE) 18:52:24 437.485
LilacSat-2 29 Aug 18:45:10 18:48:59 74° 76° (ENE) 18:52:49 437.200
YUBILEINY 29 Aug 18:51:36 19:00:09 59° 269° (W) 19:08:36 435.215
CINEMA 3 29 Aug 18:54:46 18:57:16 14° 61° (ENE) 18:59:44 145.822/145.860
NOAA 18 29 Aug 19:01:35 19:07:08 84° 255° (WSW) 19:12:42 137.9125
CANX-2 29 Aug 19:04:28 19:05:43 11° 61° (ENE) 19:06:58 2200.000
BRITE-PL 29 Aug 19:06:07 19:10:37 35° 266° (W) 19:15:28 437.365/2234.400
CUTE 1.7 + AOD 2 29 Aug 19:10:08 19:11:23 11° 61° (ENE) 19:12:38 437.475
KKS-1 29 Aug 19:12:39 19:13:43 11° 301° (WNW) 19:14:48 437.445
CUBESAT XI-V 29 Aug 19:20:05 19:24:33 44° 289° (WNW) 19:29:00 437.345
Cubesat XI-IV 29 Aug 19:32:58 19:37:59 41° 262° (W) 19:43:02 437.490
PCSat 29 Aug 19:38:07 19:41:45 18° 40° (NE) 19:45:22 145.827
NOAA 15 29 Aug 19:38:55 19:43:24 28° 265° (W) 19:47:56 137.62
Cosmos 2504 29 Aug 19:39:38 19:46:50 72° 265° (W) 19:53:58 435.465 / 435.565
STARS 29 Aug 19:43:10 19:43:37 10° 301° (WNW) 19:44:04 437.465
CUTE-I 29 Aug 19:44:29 19:49:14 33° 264° (W) 19:54:00 437.470
STRAND 1 29 Aug 19:54:53 19:59:00 24° 94° (E) 20:03:07 437.568
DOVE 4 29 Aug 20:04:11 20:09:08 45° 263° (W) 20:14:14 437.250
BEESAT 2 29 Aug 20:08:56 20:12:09 23° 246° (WSW) 20:15:21 435.950
GOMX 1 29 Aug 20:10:10 20:13:58 20° 270° (W) 20:17:54 467.674
SEEDS 29 Aug 20:11:09 20:14:55 34° 70° (ENE) 20:18:42 437.485
AIST 1 29 Aug 20:14:08 20:17:59 29° 74° (ENE) 20:21:48
HO-68 29 Aug 20:23:00 20:30:12 84° 72° (ENE) 20:37:27 435.675
UWE-3 29 Aug 20:26:33 20:29:51 20° 66° (ENE) 20:33:07 435.000/436.395/437.385
CINEMA 3 29 Aug 20:28:43 20:33:45 80° 258° (WSW) 20:38:43 145.822/145.860
Cosmos 2491 29 Aug 20:32:08 20:39:39 31° 292° (WNW) 20:47:16 435.465 / 435.565
CUBEBUG 2 29 Aug 20:32:37 20:36:48 34° 70° (ENE) 20:40:53 437.445
AAUSAT CUBESAT 2 29 Aug 20:35:52 20:39:36 35° 71° (ENE) 20:43:22 437.432
ZACube-1 29 Aug 20:36:39 20:39:26 17° 64° (ENE) 20:42:10 437.345
CANX-2 29 Aug 20:36:47 20:40:58 74° 259° (WSW) 20:45:11 2200.000
CUTE 1.7 + AOD 2 29 Aug 20:42:26 20:46:37 74° 257° (WSW) 20:50:50 437.475
COMPASS 1 29 Aug 20:45:50 20:49:52 58° 74° (ENE) 20:53:56 437.405
NOAA 18 29 Aug 20:47:04 20:48:33 11° 272° (W) 20:50:03 137.9125
AIST 2 29 Aug 21:00:40 21:04:47 52° 52° (NE) 21:08:52 435.215
PRISM 29 Aug 21:15:12 21:17:45 16° 92° (E) 21:20:17 437.425
PCSat 29 Aug 21:20:28 21:25:56 88° 60° (ENE) 21:31:21 145.827
STRAND 1 29 Aug 21:33:32 21:38:19 42° 291° (WNW) 21:43:07 437.568
Cosmos 2504 29 Aug 21:37:17 21:38:44 11° 286° (WNW) 21:40:11 435.465 / 435.565
Oscar 11 29 Aug 21:37:35 21:41:51 69° 75° (ENE) 21:46:09 145.826/435.025
SEEDS 29 Aug 21:47:36 21:50:42 20° 267° (W) 21:53:50 437.485
FUNcube-1 29 Aug 21:48:03 21:52:29 84° 74° (ENE) 21:56:50 145.935
AIST 1 29 Aug 21:51:51 21:55:28 25° 271° (W) 21:59:01
DELFI C3 29 Aug 21:55:25 21:59:09 43° 72° (ENE) 22:02:54 145.870
UWE-3 29 Aug 22:01:43 22:06:02 42° 261° (W) 22:10:17 435.000/436.395/437.385
CUBEBUG 2 29 Aug 22:09:35 22:13:26 25° 265° (W) 22:17:13 437.445
ZACube-1 29 Aug 22:11:00 22:15:21 51° 261° (W) 22:19:36 437.345
AAUSAT CUBESAT 2 29 Aug 22:12:12 22:15:11 19° 267° (W) 22:18:12 437.432
HO-68 29 Aug 22:14:02 22:18:44 18° 270° (W) 22:23:27 435.675
AUBIESAT-1 29 Aug 22:23:22 22:26:40 20° 59° (ENE) 22:29:57 437.475
COMPASS 1 29 Aug 22:24:13 22:25:48 12° 270° (W) 22:27:24 437.405
M-CUBED/EXP-1 PRIME 29 Aug 22:30:20 22:34:16 27° 62° (ENE) 22:38:12 437.505
HUMSAT D 29 Aug 22:37:07 22:41:13 64° 75° (ENE) 22:45:18 437.325/437.525
Cosmos 2499 29 Aug 22:37:47 22:43:05 22° 66° (ENE) 22:48:24 435.465 / 435.565
AIST 2 29 Aug 22:40:15 22:42:51 16° 250° (WSW) 22:45:28 435.215
UNISAT 6 29 Aug 22:45:28 22:48:12 16° 92° (E) 22:50:55 437.425
PRISM 29 Aug 22:49:17 22:53:17 46° 288° (WNW) 22:57:17 437.425
O/OREOS (USA 219) 29 Aug 22:57:45 23:01:19 22° 55° (NE) 23:04:53 437.305
CUBEBUG 1 29 Aug 23:02:31 23:05:01 15° 62° (ENE) 23:07:31 437.445
PCSat 29 Aug 23:06:13 23:08:31 13° 258° (WSW) 23:10:49 145.827
GONETS M04 29 Aug 23:06:46 23:15:21 50° 74° (ENE) 23:23:51
VELOX 1 29 Aug 23:06:51 23:09:10 14° 61° (ENE) 23:11:29 145.980
SO-50 29 Aug 23:09:28 23:13:30 27° 113° (ESE) 23:17:32 436.795
DX 1 29 Aug 23:16:47 23:18:30 12° 60° (ENE) 23:20:12 434.975-435.025
Oscar 11 29 Aug 23:17:23 23:18:27 11° 271° (W) 23:19:31 145.826/435.025
ANTELSAT 29 Aug 23:21:20 23:25:22 39° 98° (E) 23:29:22 437.575/2403.000
DELFI C3 29 Aug 23:31:59 23:34:13 15° 269° (W) 23:36:27 145.870
50 SAT 29 Aug 23:40:39 23:43:33 24° 69° (ENE) 23:46:29 437.505
UKube-1 29 Aug 23:50:55 23:54:09 21° 65° (ENE) 23:57:23 .
TIGRISAT 29 Aug 23:51:26 23:55:44 82° 104° (ESE) 23:59:58 435.000
AISAT 29 Aug 23:53:49 23:58:01 42° 70° (ENE) 00:02:15 437.250
ESTCUBE 1 29 Aug 23:55:11 23:59:39 77° 74° (ENE) 00:04:09 437.505/2401.250
AUBIESAT-1 29 Aug 23:56:11 00:00:43 53° 255° (WSW) 00:05:15 437.475
M-CUBED/EXP-1 PRIME 30 Aug 00:04:14 00:08:34 37° 257° (WSW) 00:12:57 437.505
DANDE 30 Aug 00:10:45 00:12:38 18° 90° (E) 00:14:40 436.750
HUMSAT D 30 Aug 00:16:08 00:17:14 11° 271° (W) 00:18:20 437.325/437.525
UNISAT 6 30 Aug 00:21:04 00:25:10 44° 288° (WNW) 00:29:12 437.425
RS-15 30 Aug 00:24:03 00:33:12 29° 102° (ESE) 00:42:43 29.354- 29.394
QB50P1 30 Aug 00:24:54 00:28:33 28° 96° (E) 00:32:11 145.935-145.965
Cosmos 2499 30 Aug 00:29:51 00:36:51 67° 266° (W) 00:43:56 435.465 / 435.565
CUSAT 1 30 Aug 00:31:59 00:34:55 39° 287° (WNW) 00:38:36 437.405
POPSAT HIP 1 30 Aug 00:34:59 00:38:53 35° 98° (E) 00:42:44 437.405
CUBEBUG 1 30 Aug 00:36:28 00:40:49 59° 259° (W) 00:45:12 437.445
O/OREOS (USA 219) 30 Aug 00:36:33 00:40:56 44° 253° (WSW) 00:45:18 437.305
VELOX 1 30 Aug 00:40:41 00:45:05 65° 258° (WSW) 00:49:32 145.980
SPROUT 30 Aug 00:42:41 00:46:58 67° 74° (ENE) 00:51:15 437.525
SO-50 30 Aug 00:49:11 00:53:48 43° 311° (NW) 00:58:23 436.795
DX 1 30 Aug 00:49:42 00:54:04 75° 256° (WSW) 00:58:29 434.975-435.025
